Time,TemperatureF,DewpointF,PressureIn,WindDirection,WindDirectionDegrees,WindSpeedMPH,WindSpeedGustMPH,Humidity,HourlyPrecipIn,Conditions,Clouds,dailyrainin,SolarRadiationWatts/m^2,SoftwareType,DateUTC
2013-07-27 00:02:00,78.0,72.0,-100.00,South,174,3.0,6.0,82,0.00,,,0.00,0.000000,,2013-07-27 05:02:00,
2013-07-27 00:33:00,75.0,72.0,-100.00,East,91,3.0,4.0,91,0.00,,,0.00,0.000000,,2013-07-27 05:33:00,
2013-07-27 00:43:00,75.0,72.0,-100.00,East,91,3.0,4.0,91,0.00,,,0.00,0.000000,,2013-07-27 05:43:00,
2013-07-27 00:52:00,75.0,72.0,-100.00,East,91,3.0,4.0,91,0.00,,,0.00,0.000000,,2013-07-27 05:52:00,
2013-07-27 01:02:00,75.0,72.0,-100.00,East,91,3.0,4.0,91,0.00,,,0.00,0.000000,,2013-07-27 06:02:00,
2013-07-27 01:33:00,76.0,72.0,-100.00,South,169,3.0,5.0,88,0.00,,,0.00,0.000000,,2013-07-27 06:33:00,
2013-07-27 01:43:00,76.0,72.0,-100.00,South,169,3.0,5.0,88,0.00,,,0.00,0.000000,,2013-07-27 06:43:00,
2013-07-27 01:52:00,76.0,72.0,-100.00,South,169,3.0,5.0,88,0.00,,,0.00,0.000000,,2013-07-27 06:52:00,
2013-07-27 02:02:00,76.0,72.0,-100.00,South,169,3.0,5.0,88,0.00,,,0.00,0.000000,,2013-07-27 07:02:00,
2013-07-27 02:34:00,76.0,73.0,-100.00,South,186,2.0,4.0,90,0.00,,,0.00,0.000000,,2013-07-27 07:34:00,
2013-07-27 02:44:00,76.0,73.0,-100.00,South,186,2.0,4.0,90,0.00,,,0.00,0.000000,,2013-07-27 07:44:00,
2013-07-27 02:52:00,76.0,73.0,-100.00,South,186,2.0,4.0,90,0.00,,,0.00,0.000000,,2013-07-27 07:52:00,
2013-07-27 03:02:00,76.0,73.0,-100.00,South,186,2.0,4.0,90,0.00,,,0.00,0.000000,,2013-07-27 08:02:00,
2013-07-27 03:32:00,76.0,73.0,-100.00,SW,220,2.0,6.0,91,0.00,,,0.00,0.000000,,2013-07-27 08:32:00,
2013-07-27 03:43:00,76.0,73.0,-100.00,SW,220,2.0,6.0,91,0.00,,,0.00,0.000000,,2013-07-27 08:43:00,
2013-07-27 03:53:00,76.0,73.0,-100.00,SW,220,2.0,6.0,91,0.00,,,0.00,0.000000,,2013-07-27 08:53:00,
2013-07-27 04:02:00,76.0,73.0,-100.00,SW,220,2.0,6.0,91,0.00,,,0.00,0.000000,,2013-07-27 09:02:00,
2013-07-27 04:44:00,76.0,74.0,-100.00,WSW,252,3.0,6.0,95,0.00,,,0.00,0.000000,,2013-07-27 09:44:00,
2013-07-27 04:52:00,76.0,74.0,-100.00,WSW,252,3.0,6.0,95,0.00,,,0.00,0.000000,,2013-07-27 09:52:00,
2013-07-27 05:02:00,76.0,74.0,-100.00,WSW,252,3.0,6.0,95,0.00,,,0.00,0.000000,,2013-07-27 10:02:00,
2013-07-27 05:32:00,76.0,76.0,-100.00,South,170,2.0,7.0,99,0.01,,,0.01,0.000000,,2013-07-27 10:32:00,
2013-07-27 05:44:00,76.0,76.0,-100.00,South,170,2.0,7.0,99,0.01,,,0.01,0.000000,,2013-07-27 10:44:00,
2013-07-27 05:52:00,76.0,76.0,-100.00,South,170,2.0,7.0,99,0.01,,,0.01,0.000000,,2013-07-27 10:52:00,
2013-07-27 06:02:00,76.0,76.0,-100.00,South,170,2.0,7.0,99,0.01,,,0.01,0.000000,,2013-07-27 11:02:00,
2013-07-27 06:32:00,75.0,75.0,-100.00,WSW,255,1.0,4.0,100,0.01,,,0.02,0.000000,,2013-07-27 11:32:00,
2013-07-27 06:44:00,75.0,75.0,-100.00,WSW,255,1.0,4.0,100,0.01,,,0.02,0.000000,,2013-07-27 11:44:00,
2013-07-27 06:53:00,75.0,75.0,-100.00,WSW,255,1.0,4.0,100,0.01,,,0.02,0.000000,,2013-07-27 11:53:00,
2013-07-27 07:02:00,75.0,75.0,-100.00,WSW,255,1.0,4.0,100,0.01,,,0.02,0.000000,,2013-07-27 12:02:00,
2013-07-27 07:33:00,75.0,75.0,-100.00,SSE,161,0.0,0.0,100,0.06,,,0.08,5.000000,,2013-07-27 12:33:00,
2013-07-27 07:43:00,75.0,75.0,-100.00,SSE,161,0.0,0.0,100,0.06,,,0.08,5.000000,,2013-07-27 12:43:00,
2013-07-27 07:52:00,75.0,75.0,-100.00,SSE,161,0.0,0.0,100,0.06,,,0.08,5.000000,,2013-07-27 12:52:00,
2013-07-27 08:02:00,75.0,75.0,-100.00,SSE,161,0.0,0.0,100,0.06,,,0.08,5.000000,,2013-07-27 13:02:00,
2013-07-27 08:32:00,76.0,76.0,-100.00,SSE,165,4.0,6.0,100,0.04,,,0.12,28.000000,,2013-07-27 13:32:00,
2013-07-27 08:44:00,76.0,76.0,-100.00,SSE,165,4.0,6.0,100,0.04,,,0.12,28.000000,,2013-07-27 13:44:00,
2013-07-27 08:53:00,76.0,76.0,-100.00,SSE,165,4.0,6.0,100,0.04,,,0.12,28.000000,,2013-07-27 13:53:00,
2013-07-27 09:02:00,76.0,76.0,-100.00,SSE,165,4.0,6.0,100,0.04,,,0.12,28.000000,,2013-07-27 14:02:00,
2013-07-27 09:33:00,77.0,77.0,-100.00,SSW,200,3.0,6.0,100,0.01,,,0.13,113.000000,,2013-07-27 14:33:00,
2013-07-27 09:44:00,77.0,77.0,-100.00,SSW,200,3.0,6.0,100,0.01,,,0.13,113.000000,,2013-07-27 14:44:00,
2013-07-27 09:54:00,77.0,77.0,-100.00,SSW,200,3.0,6.0,100,0.01,,,0.13,113.000000,,2013-07-27 14:54:00,
2013-07-27 10:02:00,77.0,77.0,-100.00,SSW,200,3.0,6.0,100,0.01,,,0.13,113.000000,,2013-07-27 15:02:00,
2013-07-27 10:33:00,77.0,77.0,-100.00,SSW,211,6.0,11.0,99,0.01,,,0.14,65.000000,,2013-07-27 15:33:00,
2013-07-27 10:44:00,77.0,77.0,-100.00,SSW,211,6.0,11.0,99,0.01,,,0.14,65.000000,,2013-07-27 15:44:00,
2013-07-27 10:53:00,77.0,77.0,-100.00,SSW,211,6.0,11.0,99,0.01,,,0.14,65.000000,,2013-07-27 15:53:00,
2013-07-27 11:02:00,77.0,77.0,-100.00,SSW,211,6.0,11.0,99,0.01,,,0.14,65.000000,,2013-07-27 16:02:00,
2013-07-27 11:33:00,75.0,74.0,-100.00,SW,234,6.0,21.0,98,0.18,,,0.32,25.000000,,2013-07-27 16:33:00,
2013-07-27 11:43:00,75.0,74.0,-100.00,SW,234,6.0,21.0,98,0.18,,,0.32,25.000000,,2013-07-27 16:43:00,
2013-07-27 11:54:00,75.0,74.0,-100.00,SW,234,6.0,21.0,98,0.18,,,0.32,25.000000,,2013-07-27 16:54:00,
2013-07-27 12:02:00,75.0,74.0,-100.00,SW,234,6.0,21.0,98,0.18,,,0.32,25.000000,,2013-07-27 17:02:00,
2013-07-27 12:32:00,79.0,74.0,-100.00,SW,226,6.0,16.0,85,0.03,,,0.35,361.000000,,2013-07-27 17:32:00,
2013-07-27 12:43:00,79.0,74.0,-100.00,SW,226,6.0,16.0,85,0.03,,,0.35,361.000000,,2013-07-27 17:43:00,
2013-07-27 12:54:00,79.0,74.0,-100.00,SW,226,6.0,16.0,85,0.03,,,0.35,361.000000,,2013-07-27 17:54:00,
2013-07-27 13:02:00,79.0,74.0,-100.00,SW,226,6.0,16.0,85,0.03,,,0.35,361.000000,,2013-07-27 18:02:00,
2013-07-27 13:33:00,81.0,73.0,-100.00,SSW,208,6.0,13.0,76,0.00,,,0.35,557.000000,,2013-07-27 18:33:00,
2013-07-27 13:43:00,81.0,73.0,-100.00,SSW,208,6.0,13.0,76,0.00,,,0.35,557.000000,,2013-07-27 18:43:00,
2013-07-27 13:53:00,81.0,73.0,-100.00,SSW,208,6.0,13.0,76,0.00,,,0.35,557.000000,,2013-07-27 18:53:00,
2013-07-27 14:02:00,81.0,73.0,-100.00,SSW,208,6.0,13.0,76,0.00,,,0.35,557.000000,,2013-07-27 19:02:00,
2013-07-27 14:32:00,80.0,74.0,-100.00,South,179,7.0,14.0,82,0.01,,,0.36,243.000000,,2013-07-27 19:32:00,
2013-07-27 14:43:00,80.0,74.0,-100.00,South,179,7.0,14.0,82,0.01,,,0.36,243.000000,,2013-07-27 19:43:00,
2013-07-27 14:53:00,80.0,74.0,-100.00,South,179,7.0,14.0,82,0.01,,,0.36,243.000000,,2013-07-27 19:53:00,
2013-07-27 15:02:00,80.0,74.0,-100.00,South,179,7.0,14.0,82,0.01,,,0.36,243.000000,,2013-07-27 20:02:00,
2013-07-27 15:33:00,77.0,76.0,-100.00,NNW,343,4.0,15.0,97,0.28,,,0.64,124.000000,,2013-07-27 20:33:00,
2013-07-27 15:43:00,77.0,76.0,-100.00,NNW,343,4.0,15.0,97,0.28,,,0.64,124.000000,,2013-07-27 20:43:00,
2013-07-27 15:52:00,77.0,76.0,-100.00,NNW,343,4.0,15.0,97,0.28,,,0.64,124.000000,,2013-07-27 20:52:00,
2013-07-27 16:03:00,77.0,76.0,-100.00,NNW,343,4.0,15.0,97,0.28,,,0.64,124.000000,,2013-07-27 21:03:00,
2013-07-27 16:43:00,81.0,79.0,-100.00,South,190,6.0,10.0,95,0.29,,,0.93,213.000000,,2013-07-27 21:43:00,
2013-07-27 16:53:00,81.0,79.0,-100.00,South,190,6.0,10.0,95,0.29,,,0.93,213.000000,,2013-07-27 21:53:00,
2013-07-27 17:02:00,81.0,79.0,-100.00,South,190,6.0,10.0,95,0.29,,,0.93,213.000000,,2013-07-27 22:02:00,
2013-07-27 17:33:00,81.0,78.0,-100.00,WSW,242,4.0,16.0,90,0.00,,,0.93,436.000000,,2013-07-27 22:33:00,
2013-07-27 17:43:00,81.0,78.0,-100.00,WSW,242,4.0,16.0,90,0.00,,,0.93,436.000000,,2013-07-27 22:43:00,
2013-07-27 17:53:00,81.0,78.0,-100.00,WSW,242,4.0,16.0,90,0.00,,,0.93,436.000000,,2013-07-27 22:53:00,
2013-07-27 18:02:00,81.0,78.0,-100.00,WSW,242,4.0,16.0,90,0.00,,,0.93,436.000000,,2013-07-27 23:02:00,
2013-07-27 18:32:00,80.0,76.0,-100.00,SSW,212,3.0,8.0,88,0.00,,,0.93,137.000000,,2013-07-27 23:32:00,
2013-07-27 18:44:00,80.0,76.0,-100.00,SSW,212,3.0,8.0,88,0.00,,,0.93,137.000000,,2013-07-27 23:44:00,
2013-07-27 18:53:00,80.0,76.0,-100.00,SSW,212,3.0,8.0,88,0.00,,,0.93,137.000000,,2013-07-27 23:53:00,
2013-07-27 19:02:00,80.0,76.0,-100.00,SSW,212,3.0,8.0,88,0.00,,,0.93,137.000000,,2013-07-28 00:02:00,
2013-07-27 19:32:00,81.0,77.0,-100.00,NW,310,3.0,7.0,87,0.00,,,0.93,90.000000,,2013-07-28 00:32:00,
2013-07-27 19:44:00,81.0,77.0,-100.00,NW,310,3.0,7.0,87,0.00,,,0.93,90.000000,,2013-07-28 00:44:00,
2013-07-27 19:53:00,81.0,77.0,-100.00,NW,310,3.0,7.0,87,0.00,,,0.93,90.000000,,2013-07-28 00:53:00,
2013-07-27 20:02:00,81.0,77.0,-100.00,NW,310,3.0,7.0,87,0.00,,,0.93,90.000000,,2013-07-28 01:02:00,
2013-07-27 20:32:00,78.0,76.0,-100.00,NNW,328,4.0,7.0,93,0.00,,,0.93,19.000000,,2013-07-28 01:32:00,
2013-07-27 20:43:00,78.0,76.0,-100.00,NNW,328,4.0,7.0,93,0.00,,,0.93,19.000000,,2013-07-28 01:43:00,
2013-07-27 20:53:00,78.0,76.0,-100.00,NNW,328,4.0,7.0,93,0.00,,,0.93,19.000000,,2013-07-28 01:53:00,
2013-07-27 21:03:00,78.0,76.0,-100.00,NNW,328,4.0,7.0,93,0.00,,,0.93,19.000000,,2013-07-28 02:03:00,
2013-07-27 21:32:00,75.0,74.0,-100.00,NW,321,4.0,9.0,97,0.00,,,0.93,0.000000,,2013-07-28 02:32:00,
2013-07-27 21:42:00,75.0,74.0,-100.00,NW,321,4.0,9.0,97,0.00,,,0.93,0.000000,,2013-07-28 02:42:00,
2013-07-27 21:53:00,75.0,74.0,-100.00,NW,321,4.0,9.0,97,0.00,,,0.93,0.000000,,2013-07-28 02:53:00,
2013-07-27 22:02:00,75.0,74.0,-100.00,NW,321,4.0,9.0,97,0.00,,,0.93,0.000000,,2013-07-28 03:02:00,
2013-07-27 22:32:00,74.0,73.0,-100.00,NNW,328,2.0,6.0,98,0.00,,,0.93,0.000000,,2013-07-28 03:32:00,
2013-07-27 22:42:00,74.0,73.0,-100.00,NNW,328,2.0,6.0,98,0.00,,,0.93,0.000000,,2013-07-28 03:42:00,
2013-07-27 22:53:00,74.0,73.0,-100.00,NNW,328,2.0,6.0,98,0.00,,,0.93,0.000000,,2013-07-28 03:53:00,
2013-07-27 23:02:00,74.0,73.0,-100.00,NNW,328,2.0,6.0,98,0.00,,,0.93,0.000000,,2013-07-28 04:02:00,
2013-07-27 23:32:00,74.0,74.0,-100.00,WSW,240,1.0,3.0,100,0.00,,,0.93,0.000000,,2013-07-28 04:32:00,
2013-07-27 23:43:00,74.0,74.0,-100.00,WSW,240,1.0,3.0,100,0.00,,,0.93,0.000000,,2013-07-28 04:43:00,
2013-07-27 23:53:00,74.0,74.0,-100.00,WSW,240,1.0,3.0,100,0.00,,,0.93,0.000000,,2013-07-28 04:53:00,